Location: Dal�� Lhota
(48.7500°N, 14.0167°E)
Time: 00:42:24
(UTC+00:00)

Vanguard 3 - Pass Details

Date: 04 August 2021
Orbit: 510 x 3260 km, 33.3° (Epoch: 16 September)

Event Time Altitude Azimuth Distance (km) Brightness Sun altitude
Rises 14:23:03 0° 200° (SSW) 4,736 11.5 39.8°
Reaches altitude 10° 14:26:41 10° 186° (S) 4,161 11.2 39.3°
Maximum altitude 14:35:18 23° 139° (SE) 4,002 10.7 37.9°
Drops below altitude 10° 14:47:01 10° 96° (E) 5,824 11.1 36.1°
Sets 14:53:26 0° 85° (E) 7,107 11.5 35.1°
